(503182) = 2012 VC47 = 2015 GQ44

Discovered at Haleakala on 2012-10-17 by Pan-STARRS 1.

Orbit

Orbit type: Main Belt

Note: WebGL enabled browser required.

epoch2023-09-13.0
epoch JD2460200.5
perihelion date2020-06-28.46852
perihelion JD2459028.96852
argument of perihelion (°)124.97082
ascending node (°)48.93296
inclination (°)10.96802
eccentricity0.0613733
perihelion distance (AU)2.9557657
Tisserand w.r.t. Jupiter3.2
ΔV w.r.t. Earth (km/sec)11.2
semimajor axis (AU)3.1490321
mean anomaly (°)206.62943
mean daily motion (°/day)0.17637550
aphelion distance (AU)3.342
period (years)5.59
P-vector [x]-0.98305970
P-vector [y]0.02639659
P-vector [z]0.18137490
Q-vector [x]-0.11409197
Q-vector [y]-0.86260577
Q-vector [z]-0.49284309
absolute magnitude16.16
phase slope0.15
uncertainty0
referenceMPEC 2024-A65
observations used275
oppositions14
arc length (days)8081
first opposition used2001
last opposition used2024
residual rms (arc-secs)0.75
perturbers coarse indicatorM-v
perturbers precise indicator003Ek
first observation date used2001-11-20.0
last observation date used2024-01-05.0
computer nameMPCLINUX
JD of orbit computation2458020.222541
perihelion JD uncertainty (days)1.5774E-04
argument of perihelion uncertainty (°)3.2587E-05
ascending node uncertainty (°)1.8447E-05
inclination uncertainty (°)5.2440E-06
eccentricity uncertainty 5.4178E-08
perihelion distance uncertainty (AU)1.6035E-07
Minimum Orbit Intersection Distances (in AU)
for orbit epoch: 2460200.5, reference: E2023-VO2
Mercury2.55045
Venus2.24009
Earth1.97269
Mars1.32943
Jupiter1.65657
Saturn5.90158
Uranus15.532
Neptune26.5294

Observations

281 total observations over interval: 2001 11 20.26715 – 2024 01 05.254295
These data are available for download (format description).

Date (UT) J2000 RA J2000 Dec Magn Location Ref
2001 11 20.26715 02 23 23.20 +12 36 00.1 22.5 V 691 – Steward Observatory, Kitt Peak-Spacewatch MPS 603381
2001 11 20.28883 02 23 22.15 +12 35 59.4 22.0 V 691 – Steward Observatory, Kitt Peak-Spacewatch MPS 603381
2001 11 20.31137 02 23 21.15 +12 35 57.6 21.7 V 691 – Steward Observatory, Kitt Peak-Spacewatch MPS 603381
2004 04 21.92296 14 02 45.50 -06 58 51.3 20.5 R 599 – Campo Imperatore-CINEOS MPS 603381
2004 04 21.93222 14 02 45.01 -06 58 51.3 20.3 R 599 – Campo Imperatore-CINEOS MPS 603381
2004 04 21.94148 14 02 44.52 -06 58 50.5 19.9 R 599 – Campo Imperatore-CINEOS MPS 603381
2004 04 21.95076 14 02 44.01 -06 58 49.9 19.9 R 599 – Campo Imperatore-CINEOS MPS 603381
2007 12 16.38086 04 28 49.26 +28 37 38.3 20.2 V G96 – Mt. Lemmon Survey MPS 603381
2007 12 16.38921 04 28 48.82 +28 37 38.5 19.9 V G96 – Mt. Lemmon Survey MPS 603381
2007 12 16.39749 04 28 48.32 +28 37 38.3 20.1 V G96 – Mt. Lemmon Survey MPS 603381
2007 12 16.40573 04 28 47.89 +28 37 38.3 20.4 V G96 – Mt. Lemmon Survey MPS 603381
2011 08 01.48922 22 24 14.422 -26 37 42.21 21.4 w F51 – Pan-STARRS 1, Haleakala MPS 603381
2011 08 01.50175 22 24 13.904 -26 37 46.31 21.5 w F51 – Pan-STARRS 1, Haleakala MPS 603381
2011 08 01.51426 22 24 13.399 -26 37 50.16 21.5 w F51 – Pan-STARRS 1, Haleakala MPS 603381
2012 10 17.402818 02 15 23.054 +08 26 55.57 20.9 w F51 – Pan-STARRS 1, Haleakala MPS 603381
2012 10 17.416234 02 15 22.390 +08 26 54.13 20.9 w F51 – Pan-STARRS 1, Haleakala MPS 603381
2012 10 17.429647 02 15 21.727 +08 26 52.76 21.0 w F51 – Pan-STARRS 1, Haleakala MPS 603381
2012 10 17.443161 02 15 21.071 +08 26 51.16 20.9 w F51 – Pan-STARRS 1, Haleakala MPS 603381
2012 11 06.27708 01 59 02.40 +07 53 24.9 20.7 V G96 – Mt. Lemmon Survey MPS 442052
2012 11 06.28331 01 59 02.07 +07 53 25.0 21.0 V G96 – Mt. Lemmon Survey MPS 442052
2012 11 06.28958 01 59 01.78 +07 53 24.2 20.9 V G96 – Mt. Lemmon Survey MPS 442052
2012 11 06.294945 01 59 01.717 +07 53 24.37 21.1 w F51 – Pan-STARRS 1, Haleakala MPS 442052
2012 11 06.29583 01 59 01.50 +07 53 23.6 20.8 V G96 – Mt. Lemmon Survey MPS 442052
2012 11 06.309864 01 59 00.971 +07 53 23.18 21.2 w F51 – Pan-STARRS 1, Haleakala MPS 442052
2012 11 06.310609 01 59 00.953 +07 53 23.25 21.1 w F51 – Pan-STARRS 1, Haleakala MPS 442052
2012 11 06.324814 01 59 00.247 +07 53 22.07 21.1 w F51 – Pan-STARRS 1, Haleakala MPS 442052
2012 11 06.325558 01 59 00.214 +07 53 22.10 21.2 w F51 – Pan-STARRS 1, Haleakala MPS 442052
2012 11 06.339749 01 58 59.505 +07 53 20.99 21.1 w F51 – Pan-STARRS 1, Haleakala MPS 442052
2012 11 06.340483 01 58 59.491 +07 53 21.05 21.2 w F51 – Pan-STARRS 1, Haleakala MPS 442052
2012 11 13.24110 01 53 44.73 +07 46 03.8 21.2 V G96 – Mt. Lemmon Survey MPS 442052
2012 11 13.24693 01 53 44.44 +07 46 03.9 20.8 V G96 – Mt. Lemmon Survey MPS 442052
2012 11 13.25282 01 53 44.16 +07 46 03.3 21.4 V G96 – Mt. Lemmon Survey MPS 442052
2012 11 13.25862 01 53 43.94 +07 46 03.3 21.0 V G96 – Mt. Lemmon Survey MPS 442052
2013 12 31.41969 07 34 17.23 +35 23 55.4 20.4 V G96 – Mt. Lemmon Survey MPS 603381
2013 12 31.42610 07 34 16.85 +35 23 57.1 20.4 V G96 – Mt. Lemmon Survey MPS 603381
2013 12 31.43893 07 34 16.14 +35 24 00.9 20.4 V G96 – Mt. Lemmon Survey MPS 603381
2014 02 21.18368 06 54 43.25 +36 11 28.8 20.8 V G96 – Mt. Lemmon Survey MPS 603381
2014 02 21.18825 06 54 43.17 +36 11 28.0 21.5 V G96 – Mt. Lemmon Survey MPS 603381
2014 02 21.19282 06 54 43.13 +36 11 27.2 21.2 V G96 – Mt. Lemmon Survey MPS 603381
2014 02 21.19738 06 54 43.04 +36 11 26.6 20.6 V G96 – Mt. Lemmon Survey MPS 603381
2015 03 25.44266 13 36 40.826 -00 35 13.13 20.5 w F51 – Pan-STARRS 1, Haleakala MPS 600902
2015 03 25.45747 13 36 40.176 -00 35 10.94 20.5 w F51 – Pan-STARRS 1, Haleakala MPS 600902
2015 03 25.47241 13 36 39.525 -00 35 08.96 20.6 w F51 – Pan-STARRS 1, Haleakala MPS 600902
2015 03 25.48742 13 36 38.871 -00 35 06.70 20.6 w F51 – Pan-STARRS 1, Haleakala MPS 600902
2015 04 15.44974 13 19 54.407 +00 08 31.76 20.2 w F51 – Pan-STARRS 1, Haleakala MPS 600902
2015 04 15.47921 13 19 52.888 +00 08 34.22 20.4 w F51 – Pan-STARRS 1, Haleakala MPS 600902
2015 04 16.34609 13 19 09.926 +00 09 48.57 20.4 w F51 – Pan-STARRS 1, Haleakala MPS 600902
2015 04 16.36056 13 19 09.182 +00 09 49.75 20.4 w F51 – Pan-STARRS 1, Haleakala MPS 600902
2015 04 16.37508 13 19 08.437 +00 09 50.87 20.4 w F51 – Pan-STARRS 1, Haleakala MPS 600902
2015 04 16.38958 13 19 07.692 +00 09 52.07 20.5 w F51 – Pan-STARRS 1, Haleakala MPS 600902
2015 04 18.26243 13 17 35.00 +00 12 16.7 20.4 r G45 – Space Surveillance Telescope, Atom Site MPS 604683
2015 04 18.26896 13 17 34.67 +00 12 18.5 20.1 r G45 – Space Surveillance Telescope, Atom Site MPS 604683
2015 04 18.28069 13 17 34.03 +00 12 18.4 20.2 r G45 – Space Surveillance Telescope, Atom Site MPS 604683
2015 04 18.28658 13 17 33.74 +00 12 19.0 20.4 r G45 – Space Surveillance Telescope, Atom Site MPS 604683
2015 04 18.34544 13 17 31.001 +00 12 24.00 20.4 w F51 – Pan-STARRS 1, Haleakala MPS 600902
2015 04 18.35999 13 17 30.263 +00 12 25.07 20.3 w F51 – Pan-STARRS 1, Haleakala MPS 600902
2015 04 18.37454 13 17 29.518 +00 12 26.05 20.4 w F51 – Pan-STARRS 1, Haleakala MPS 600902
2015 04 18.38933 13 17 28.767 +00 12 27.22 20.4 w F51 – Pan-STARRS 1, Haleakala MPS 600902
2015 04 22.25149 13 14 21.88 +00 16 18.3 20.1 r G45 – Space Surveillance Telescope, Atom Site MPS 604683
2015 04 22.26281 13 14 21.29 +00 16 18.5 20.2 r G45 – Space Surveillance Telescope, Atom Site MPS 604683
2015 04 22.26796 13 14 21.01 +00 16 19.2 20.7 r G45 – Space Surveillance Telescope, Atom Site MPS 604683
2015 04 22.27345 13 14 20.79 +00 16 19.7 20.3 r G45 – Space Surveillance Telescope, Atom Site MPS 604683
2015 05 21.28512 12 57 35.308 -00 11 37.86 21.1 w F51 – Pan-STARRS 1, Haleakala MPS 607366
2015 05 21.29945 12 57 35.033 -00 11 40.19 21.2 w F51 – Pan-STARRS 1, Haleakala MPS 607366
2015 05 21.31381 12 57 34.749 -00 11 42.71 21.1 w F51 – Pan-STARRS 1, Haleakala MPS 607366
2015 05 22.27801 12 57 17.925 -00 14 28.53 20.9 i F51 – Pan-STARRS 1, Haleakala MPS 608710
2015 05 22.29060 12 57 17.712 -00 14 30.63 20.7 i F51 – Pan-STARRS 1, Haleakala MPS 608710
2015 05 22.30320 12 57 17.483 -00 14 32.87 20.9 i F51 – Pan-STARRS 1, Haleakala MPS 608710
2015 05 22.31573 12 57 17.240 -00 14 35.38 20.6 i F51 – Pan-STARRS 1, Haleakala MPS 608710
2016 06 11.49422 19 19 25.879 -34 11 22.64 20.7 w F51 – Pan-STARRS 1, Haleakala MPS 713989
2016 06 11.50328 19 19 25.486 -34 11 25.22 20.6 w F51 – Pan-STARRS 1, Haleakala MPS 713989
2017 08 31.44845 00 11 02.389 -13 01 21.91 21.0 i F51 – Pan-STARRS 1, Haleakala MPS 813434
2017 08 31.45979 00 11 01.904 -13 01 24.93 20.8 i F51 – Pan-STARRS 1, Haleakala MPS 813434
2017 08 31.47116 00 11 01.464 -13 01 27.81 20.7 i F51 – Pan-STARRS 1, Haleakala MPS 813434
2017 08 31.48250 00 11 00.994 -13 01 30.84 20.6 i F51 – Pan-STARRS 1, Haleakala MPS 813434
2017 09 23.39668 23 54 00.307 -14 26 43.56 21.0 w F51 – Pan-STARRS 1, Haleakala MPS 819240
2017 09 23.40784 23 53 59.767 -14 26 45.56 20.8 w F51 – Pan-STARRS 1, Haleakala MPS 819240
2017 09 23.41897 23 53 59.223 -14 26 47.32 20.8 w F51 – Pan-STARRS 1, Haleakala MPS 819240
2017 09 23.43009 23 53 58.681 -14 26 49.15 20.8 w F51 – Pan-STARRS 1, Haleakala MPS 819240
2018 11 08.29063 04 16 30.13 +24 24 27.0 21.0 G G96 – Mt. Lemmon Survey MPS 938792
2018 11 08.29579 04 16 29.84 +24 24 27.6 21.4 G G96 – Mt. Lemmon Survey MPS 938792
2018 11 08.30096 04 16 29.58 +24 24 28.5 21.6 G G96 – Mt. Lemmon Survey MPS 938792
2018 11 08.30611 04 16 29.33 +24 24 28.0 21.3 G G96 – Mt. Lemmon Survey MPS 938792
2018 11 17.32992 04 08 43.37 +24 32 55.0 20.4 G G96 – Mt. Lemmon Survey MPS 952181
2018 11 17.33551 04 08 43.05 +24 32 55.5 21.0 G G96 – Mt. Lemmon Survey MPS 952181
2018 11 17.34112 04 08 42.71 +24 32 55.9 20.8 G G96 – Mt. Lemmon Survey MPS 952181
2018 11 29.26097 03 57 36.33 +24 36 48.1 20.5 G G96 – Mt. Lemmon Survey MPS 967200
2018 11 29.26664 03 57 35.98 +24 36 47.8 20.3 G G96 – Mt. Lemmon Survey MPS 967200
2018 11 29.27229 03 57 35.74 +24 36 48.0 20.0 G G96 – Mt. Lemmon Survey MPS 967200
2018 11 29.27794 03 57 35.35 +24 36 47.7 20.7 G G96 – Mt. Lemmon Survey MPS 967200
